[[{"header":{"parameterUnit":"m.s-1","parameterCategory":1,"la1":30.2991,"la2":30.254,"lo1":-89.0895,"lo2":-89.0444,"dy":0.0017,"dx":0.0017,"nx":28,"ny":28,"refTime":"2025-11-21T03:00:00:Z","depth":0,"parameterNumber":2,"parameterNumberName":"U-component_of_WINDS"},"data":[0,0,0,0,0,0,0,0,0,0,0,0,0,0,0,0,0,0,0,0,0,0,0,0,0,0,0,0,0,0,0,0,0,0,0,0,0,0,0,0,0,0,0,0,0,0,0,0,0,0,0,0,0,0,0,0,0,0,-1.7933,-1.7933,0,-1.7928,-1.7928,-1.7928,-1.7904,-1.7904,-1.7903,-1.7903,-1.7899,-1.7899,-1.79,0,0,0,0,0,0,0,0,0,0,0,0,0,-1.7926,-1.7926,-1.7933,-1.7933,-1.7933,-1.7928,-1.7928,-1.7928,-1.7904,-1.7904,-1.7903,-1.7902,-1.7899,-1.7899,-1.79,0,0,0,0,0,0,0,0,0,0,0,0,0,-1.7926,-1.7926,-1.7933,-1.7921,-1.7919,-1.7928,-1.7928,-1.7928,-1.7904,-1.7904,-1.7903,-1.7902,-1.7898,-1.7899,-1.79,-1.792,0,0,-1.7902,-1.7902,0,0,0,0,0,0,0,0,-1.7926,-1.7926,-1.7923,-1.7922,-1.792,-1.7916,-1.7924,-1.7925,-1.7905,-1.791,-1.7902,-1.7902,-1.7905,-1.7905,-1.7906,-1.792,-1.792,-1.7902,-1.7902,-1.7902,-1.7902,0,0,0,0,0,0,0,-1.7926,-1.7926,-1.7931,-1.7923,-1.7921,-1.7916,-1.7915,-1.7924,-1.7913,-1.791,-1.7908,-1.7908,-1.7904,-1.7906,-1.7906,-1.792,-1.7902,-1.7902,-1.7903,-1.7903,-1.7953,-1.7954,0,0,0,0,0,0,-1.7927,-1.7926,-1.7931,-1.7931,-1.7921,-1.7917,-1.7916,-1.7918,-1.7912,-1.7911,-1.7908,-1.7906,-1.7905,-1.7905,-1.7906,-1.793,-1.7902,-1.7903,-1.7903,-1.7952,-1.7953,-1.7954,0,0,0,0,0,0,-1.7927,-1.7928,-1.7932,-1.7928,-1.7928,-1.7918,-1.7921,-1.7918,-1.7919,-1.7911,-1.7909,-1.7911,-1.7904,-1.7905,-1.7917,-1.793,-1.7903,-1.7904,-1.7951,-1.7952,-1.7954,-1.7979,0,0,0,0,0,0,-1.7927,-1.7928,-1.7935,-1.7929,-1.7929,-1.7942,-1.7921,-1.7919,-1.792,-1.7918,-1.7914,-1.7912,-1.7904,-1.7916,-1.7918,-1.793,-1.7904,-1.795,-1.7952,-1.7953,-1.7977,-1.7981,-1.7985,0,0,0,0,0,-1.7927,-1.7942,-1.7935,-1.7936,-1.7937,-1.7943,-1.7943,-1.7932,-1.7922,-1.7929,-1.7924,-1.7912,-1.7929,-1.7918,-1.7919,-1.7932,-1.7949,-1.7951,-1.7953,-1.7975,-1.798,-1.7985,0,0,0,0,0,0,-1.795,-1.7941,-1.7933,-1.7947,-1.7946,-1.7939,-1.7947,-1.7938,-1.794,-1.7938,-1.7926,-1.7925,-1.7939,-1.7937,-1.7925,-1.7953,-1.7937,-1.7939,-1.7953,-1.7958,-1.7962,-1.7962,-1.7905,0,0,0,0,0,-1.7957,-1.7962,-1.7954,-1.7967,-1.7967,-1.7958,-1.796,-1.7952,-1.7951,-1.795,-1.7946,-1.7946,-1.7951,-1.7955,-1.7959,-1.7977,-1.7977,-1.7987,-1.7991,-1.7994,-1.7996,-1.8007,-1.8012,-1.7961,-1.7961,-1.7961,0,0,-1.797,-1.7966,-1.797,-1.7971,-1.797,-1.7976,-1.7957,-1.7964,-1.7969,-1.7951,-1.7963,-1.796,-1.7959,-1.7975,-1.7982,-1.7974,-1.801,-1.7997,-1.7999,-1.8,-1.801,-1.8015,-1.8019,-1.7963,-1.7962,-1.7962,0,0,-1.7999,-1.7996,-1.8006,-1.8006,-1.8004,-1.7998,-1.8001,-1.7996,-1.7993,-1.8004,-1.7992,-1.7998,-1.8007,-1.8007,-1.8009,-1.804,-1.803,-1.8042,-1.8062,-1.8073,-1.8077,-1.808,-1.8092,-1.8096,-1.8045,-1.8045,-1.8045,0,-1.8016,-1.8024,-1.8013,-1.8022,-1.8023,-1.8008,-1.802,-1.802,-1.8019,-1.8021,-1.8012,-1.8024,-1.8023,-1.8039,-1.8047,-1.8048,-1.8052,-1.8042,-1.8077,-1.808,-1.8083,-1.8094,-1.8099,-1.8046,-1.8046,-1.8046,-1.8046,0,-1.8046,-1.8052,-1.8062,-1.8062,-1.8064,-1.8074,-1.8066,-1.8071,-1.8064,-1.8059,-1.8072,-1.807,-1.8074,-1.8078,-1.8071,-1.8094,-1.8089,-1.8079,-1.8062,-1.809,-1.81,-1.8104,-1.8048,-1.8048,-1.8047,-1.8047,0,0,-1.8086,-1.8082,-1.8085,-1.8086,-1.8084,-1.8089,-1.8099,-1.8103,-1.8108,-1.8109,-1.8118,-1.8127,-1.8118,-1.812,-1.8113,-1.8123,-1.8149,-1.8112,-1.8111,-1.8119,-1.8176,-1.8183,-1.8188,-1.8143,-1.8144,-1.8144,-1.8176,0,-1.8113,-1.8129,-1.8121,-1.8139,-1.8145,-1.8132,-1.8142,-1.8142,-1.8139,-1.8145,-1.8142,-1.8149,-1.8136,-1.8138,-1.8147,-1.8144,-1.816,-1.8142,-1.8152,-1.8152,-1.8151,-1.8193,-1.82,-1.823,-1.818,-1.818,-1.8181,0,-1.8146,-1.8149,-1.8167,-1.8165,-1.8168,-1.8176,-1.818,-1.8186,-1.8187,-1.8184,-1.8187,-1.8179,-1.8191,-1.8176,-1.8192,-1.818,-1.8184,-1.8184,-1.8185,-1.8185,-1.8167,-1.8194,-1.8239,-1.8243,-1.8187,-1.8186,-1.8186,0,-1.8174,-1.8182,-1.8195,-1.8196,-1.8194,-1.82,-1.82,-1.82,-1.8204,-1.8208,-1.821,-1.8216,-1.8219,-1.8225,-1.8219,-1.8208,-1.8237,-1.8221,-1.8236,-1.8236,-1.8241,-1.8241,-1.8287,-1.8245,-1.8245,-1.8245,-1.8245,0,-1.8205,-1.8216,-1.8207,-1.8215,-1.8228,-1.822,-1.8234,-1.8232,-1.8233,-1.8241,-1.8231,-1.8239,-1.8232,-1.8239,-1.8236,-1.825,-1.8252,-1.8251,-1.825,-1.8251,-1.8251,-1.8253,-1.8251,-1.8246,-1.8246,-1.8245,-1.8245,0,-1.8237,-1.8232,-1.8244,-1.8242,-1.8242,-1.8252,-1.8251,-1.8258,-1.8256,-1.8266,-1.8268,-1.8264,-1.8273,-1.8268,-1.8277,-1.8275,-1.8294,-1.829,-1.8294,-1.8292,-1.8307,-1.8306,-1.8356,-1.8362,-1.8316,-1.8317,-1.8317,0,-1.8257,-1.8265,-1.8264,-1.8269,-1.8269,-1.8277,-1.828,-1.8273,-1.8278,-1.8281,-1.8289,-1.8297,-1.8303,-1.8318,-1.8317,-1.8324,-1.8321,-1.8338,-1.8321,-1.8324,-1.8321,-1.832,-1.8322,-1.834,-1.8341,-1.8341,-1.8342,0,-1.8292,-1.8289,-1.8295,-1.83,-1.8305,-1.8308,-1.8311,-1.8316,-1.8309,-1.8315,-1.8324,-1.8329,-1.8339,-1.8348,-1.8355,-1.8356,-1.8348,-1.8347,-1.8351,-1.8353,-1.8354,-1.8354,-1.8302,-1.8346,-1.8345,-1.8345,-1.8345,-1.8345,-1.8319,-1.8326,-1.8327,-1.8334,-1.8336,-1.8339,-1.8347,-1.8345,-1.8352,-1.8359,-1.8355,-1.8366,-1.837,-1.8378,-1.8381,-1.839,-1.8383,-1.8389,-1.839,-1.8391,-1.8394,-1.8353,-1.8391,-1.8391,-1.8391,-1.8391,-1.8391,0,-1.8354,-1.8354,-1.836,-1.8365,-1.8371,-1.8364,-1.8367,-1.8373,-1.8382,-1.8386,-1.8392,-1.8403,-1.8412,-1.8412,-1.8421,-1.8428,-1.8425,-1.8431,-1.843,-1.8431,-1.8399,-1.8395,-1.8433,-1.8433,-1.8433,-1.8433,-1.8433,-1.8433,-1.8372,-1.8385,-1.8383,-1.8398,-1.8398,-1.8408,-1.8411,-1.8415,-1.8417,-1.843,-1.8437,-1.8437,-1.844,-1.8449,-1.8457,-1.8457,-1.8461,-1.8468,-1.8467,-1.8437,-1.8433,-1.8429,-1.8425,-1.8469,-1.8469,-1.8498,-1.8498,-1.8498]},{"header":{"parameterUnit":"m.s-1","parameterCategory":1,"la1":30.2991,"la2":30.254,"lo1":-89.0895,"lo2":-89.0444,"dy":0.0017,"dx":0.0017,"nx":28,"ny":28,"refTime":"2025-11-21T03:00:00:Z","depth":0,"parameterNumber":3,"parameterNumberName":"V-component_of_WINDS"},"data":[0,0,0,0,0,0,0,0,0,0,0,0,0,0,0,0,0,0,0,0,0,0,0,0,0,0,0,0,0,0,0,0,0,0,0,0,0,0,0,0,0,0,0,0,0,0,0,0,0,0,0,0,0,0,0,0,0,0,2.1539,2.1538,0,2.1503,2.1503,2.1503,2.1535,2.1536,2.1538,2.1539,2.1498,2.1496,2.1494,0,0,0,0,0,0,0,0,0,0,0,0,0,2.1631,2.1629,2.1539,2.1538,2.1538,2.1503,2.1503,2.1502,2.1535,2.1536,2.1538,2.1539,2.1499,2.1496,2.1494,0,0,0,0,0,0,0,0,0,0,0,0,0,2.1592,2.1628,2.1539,2.155,2.155,2.1504,2.1503,2.1502,2.1534,2.1536,2.1538,2.154,2.15,2.1497,2.1493,2.1432,0,0,2.1483,2.1481,0,0,0,0,0,0,0,0,2.1595,2.1589,2.1549,2.1549,2.155,2.1526,2.1521,2.1479,2.1534,2.154,2.1539,2.1541,2.1506,2.1502,2.1491,2.143,2.1429,2.1482,2.148,2.1479,2.1478,0,0,0,0,0,0,0,2.1597,2.1591,2.1525,2.1548,2.1549,2.1556,2.1552,2.1513,2.1512,2.154,2.1542,2.1538,2.1506,2.1494,2.149,2.1428,2.1483,2.1479,2.1477,2.1476,2.1318,2.1316,0,0,0,0,0,0,2.1599,2.1593,2.1526,2.1523,2.1578,2.1552,2.1549,2.1531,2.1513,2.1512,2.1536,2.1539,2.1499,2.1494,2.1489,2.1418,2.1479,2.1476,2.1474,2.132,2.1317,2.1315,0,0,0,0,0,0,2.1601,2.1593,2.1527,2.1559,2.1551,2.1549,2.1529,2.153,2.1517,2.151,2.151,2.1524,2.15,2.1494,2.1447,2.1417,2.1474,2.1471,2.1322,2.1319,2.1316,2.1274,0,0,0,0,0,0,2.1603,2.1593,2.1571,2.1558,2.1549,2.1487,2.1527,2.1527,2.1512,2.1516,2.1498,2.1497,2.1501,2.1452,2.1443,2.1413,2.1468,2.1325,2.1321,2.1317,2.1278,2.127,2.1262,0,0,0,0,0,2.1607,2.1559,2.1569,2.1561,2.1521,2.1485,2.1479,2.1486,2.1509,2.1486,2.1482,2.1498,2.1421,2.1447,2.1437,2.1405,2.1327,2.1322,2.1317,2.1281,2.1271,2.1263,0,0,0,0,0,0,2.1566,2.1557,2.1569,2.1516,2.1501,2.149,2.1462,2.1475,2.1452,2.1457,2.1465,2.146,2.1411,2.1403,2.1432,2.1346,2.1378,2.1371,2.1353,2.1344,2.1336,2.1339,2.1465,0,0,0,0,0,2.1551,2.1524,2.1517,2.1471,2.1463,2.1463,2.1448,2.1455,2.1439,2.1432,2.1424,2.1407,2.138,2.1361,2.1335,2.1277,2.1274,2.125,2.1242,2.1236,2.123,2.12,2.119,2.1299,2.1299,2.1299,0,0,2.152,2.1512,2.1493,2.1463,2.1452,2.1423,2.1458,2.1425,2.1403,2.1427,2.1383,2.1376,2.1358,2.1306,2.1282,2.1298,2.12,2.123,2.1225,2.1223,2.1194,2.1184,2.1175,2.1296,2.1296,2.1297,0,0,2.1448,2.1439,2.14,2.1389,2.1374,2.1375,2.1365,2.1353,2.135,2.1306,2.1324,2.1298,2.1249,2.1236,2.1223,2.1148,2.1162,2.1139,2.1098,2.1069,2.1061,2.1053,2.1028,2.1018,2.1133,2.1132,2.1132,0,2.1411,2.1369,2.1378,2.1345,2.1331,2.1353,2.1314,2.1302,2.1278,2.1268,2.1285,2.1227,2.1215,2.1161,2.1143,2.1131,2.1121,2.1141,2.1061,2.1054,2.1047,2.1023,2.1013,2.113,2.113,2.113,2.1131,0,2.1324,2.1295,2.1265,2.1244,2.1227,2.119,2.1194,2.1175,2.1183,2.1182,2.1138,2.1125,2.1098,2.1085,2.1092,2.1032,2.1043,2.1061,2.1092,2.1034,2.1011,2.1002,2.1126,2.1127,2.1128,2.1129,0,0,2.1226,2.1212,2.1201,2.1192,2.1177,2.1154,2.1118,2.1093,2.1077,2.106,2.1031,2.099,2.1007,2.0992,2.0998,2.0972,2.0915,2.0993,2.0993,2.098,2.085,2.0838,2.0827,2.0924,2.0922,2.0921,2.0852,0,2.1155,2.1096,2.1104,2.1047,2.1021,2.1041,2.1011,2.0998,2.0995,2.0972,2.0969,2.0941,2.0965,2.0956,2.0931,2.0927,2.0889,2.0932,2.0897,2.0896,2.0903,2.0815,2.0801,2.0737,2.0843,2.0841,2.084,0,2.1065,2.1047,2.0987,2.0978,2.0967,2.094,2.0918,2.0895,2.0881,2.0881,2.0865,2.0876,2.084,2.0872,2.0823,2.0852,2.0838,2.0834,2.0831,2.0829,2.0865,2.0811,2.0716,2.0707,2.0826,2.0827,2.0828,0,2.1001,2.0961,2.0922,2.0913,2.09,2.0881,2.0874,2.0862,2.0847,2.0828,2.0818,2.0794,2.0781,2.0761,2.0765,2.0788,2.0715,2.0747,2.0715,2.0715,2.0699,2.0701,2.0602,2.0688,2.0688,2.0688,2.0689,0,2.0922,2.0885,2.0893,2.0869,2.0828,2.0838,2.0797,2.0793,2.0782,2.0756,2.0771,2.0747,2.0753,2.0728,2.073,2.069,2.0683,2.0683,2.0684,2.0682,2.0683,2.0674,2.0679,2.0686,2.0686,2.0687,2.0687,0,2.0845,2.0848,2.0807,2.0799,2.0796,2.0767,2.076,2.0736,2.0736,2.0703,2.0696,2.0695,2.0667,2.0669,2.0636,2.0638,2.0589,2.0594,2.0595,2.0596,2.0564,2.0568,2.0458,2.0444,2.0538,2.0537,2.0536,0,2.0795,2.0768,2.0758,2.0743,2.0736,2.0711,2.0697,2.0704,2.0688,2.067,2.0649,2.0623,2.0603,2.0557,2.0553,2.0528,2.0534,2.0497,2.0531,2.053,2.0536,2.0538,2.0536,2.0491,2.049,2.0489,2.0489,0,2.0706,2.071,2.0689,2.067,2.0653,2.0637,2.0622,2.0609,2.0615,2.0596,2.0569,2.0553,2.0522,2.0496,2.0473,2.0465,2.0478,2.0478,2.047,2.0468,2.047,2.047,2.0578,2.0481,2.0482,2.0482,2.0483,2.0483,2.0642,2.062,2.061,2.0587,2.0577,2.0564,2.0543,2.054,2.0518,2.0495,2.05,2.0469,2.0456,2.0427,2.0417,2.0393,2.0406,2.0393,2.039,2.0387,2.0385,2.0473,2.0388,2.0388,2.0389,2.0389,2.0389,0,2.0556,2.0552,2.053,2.0511,2.0493,2.0508,2.0493,2.0477,2.045,2.0437,2.0418,2.0387,2.0362,2.0356,2.0332,2.0314,2.0319,2.0308,2.031,2.0308,2.0373,2.0384,2.0304,2.0304,2.0304,2.0304,2.0304,2.0304,2.051,2.0473,2.0476,2.0435,2.0429,2.0402,2.0392,2.038,2.037,2.0336,2.0316,2.0313,2.0303,2.0278,2.0256,2.0255,2.0246,2.0232,2.0233,2.0295,2.0303,2.0311,2.0322,2.023,2.023,2.017,2.017,2.0169]}]]